owner,sensor,date,latitude,longitude,vertical_datum,wind_speed,wind_to_direction,wind_speed_of_gust,qcFlag 
TABS,ioos:station:wmo:42043:1,2008-01-01T00:00:00Z,28.9818,-94.9186,4.0,1.32196823,162.3876738,1.48,'11111222,11111222,11111222' 
TABS,ioos:station:wmo:42043:1,2008-01-01T00:30:00Z,28.9818,-94.9186,4.0,1.042928569,145.5483564,1.32,'11111222,11111222,11111222' 
TABS,ioos:station:wmo:42043:1,2008-01-01T01:00:00Z,28.9818,-94.9186,4.0,1.065316854,147.6528426,1.22,'11111222,11111222,11111222' 
TABS,ioos:station:wmo:42043:1,2008-01-01T01:30:00Z,28.9818,-94.9186,4.0,1.134636506,112.2706368,1.57,'11111222,11111222,11111222' 
TABS,ioos:station:wmo:42043:1,2008-01-01T02:00:00Z,28.9818,-94.9186,4.0,1.413541651,129.5464096,1.64,'11111222,11111222,11111222' 
TABS,ioos:station:wmo:42043:1,2008-01-01T02:30:00Z,28.9818,-94.9186,4.0,1.004191217,134.1933881,1.3,'11111222,11111222,11111222' 
TABS,ioos:station:wmo:42043:1,2008-01-01T03:00:00Z,28.9818,-94.9186,4.0,8.213415855,337.9004912,11.8,'11111222,11111222,11111222' 
TABS,ioos:station:wmo:42043:1,2008-01-01T03:30:00Z,28.9818,-94.9186,4.0,11.40633158,1.90893751,14.23,'11111222,11111222,11111222' 
TABS,ioos:station:wmo:42043:1,2008-01-01T04:00:00Z,28.9818,-94.9186,4.0,11.119357,6.402559752,13.92,'11111222,11111222,11111222' 
TABS,ioos:station:wmo:42043:1,2008-01-01T04:30:00Z,28.9818,-94.9186,4.0,10.89311709,9.617736933,13.75,'11111222,11111222,11111222' 
TABS,ioos:station:wmo:42043:1,2008-01-01T05:00:00Z,28.9818,-94.9186,4.0,11.71426908,16.87233343,14.16,'11111222,11111222,11111222' 
TABS,ioos:station:wmo:42043:1,2008-01-01T05:30:00Z,28.9818,-94.9186,4.0,12.95600633,23.18090542,17.26,'11111222,11111222,11111222' 
TABS,ioos:station:wmo:42043:1,2008-01-01T06:00:00Z,28.9818,-94.9186,4.0,12.42704309,22.87140999,15.79,'11111222,11111222,11111222' 
TABS,ioos:station:wmo:42043:1,2008-01-01T06:30:00Z,28.9818,-94.9186,4.0,12.46778649,22.84230689,16.01,'11111222,11111222,11111222' 
TABS,ioos:station:wmo:42043:1,2008-01-01T07:00:00Z,28.9818,-94.9186,4.0,12.10784869,30.80116349,15.38,'11111222,11111222,11111222' 
TABS,ioos:station:wmo:42043:1,2008-01-01T07:30:00Z,28.9818,-94.9186,4.0,12.64716569,33.71490795,16.49,'11111222,11111222,11111222' 
TABS,ioos:station:wmo:42043:1,2008-01-01T08:00:00Z,28.9818,-94.9186,4.0,12.42875698,19.16360816,15.32,'11111222,11111222,11111222' 
TABS,ioos:station:wmo:42043:1,2008-01-01T08:30:00Z,28.9818,-94.9186,4.0,12.23137359,26.35528905,15.25,'11111222,11111222,11111222' 
TABS,ioos:station:wmo:42043:1,2008-01-01T09:00:00Z,28.9818,-94.9186,4.0,12.42241925,31.60419627,16.61,'11111222,11111222,11111222' 
TABS,ioos:station:wmo:42043:1,2008-01-01T09:30:00Z,28.9818,-94.9186,4.0,13.69779909,35.94097075,17.02,'11111222,11111222,11111222' 
TABS,ioos:station:wmo:42043:1,2008-01-01T10:00:00Z,28.9818,-94.9186,4.0,13.63583514,34.48226312,17.42,'11111222,11111222,11111222' 
TABS,ioos:station:wmo:42043:1,2008-01-01T10:30:00Z,28.9818,-94.9186,4.0,13.28167535,25.1755977,15.81,'11111222,11111222,11111222' 
TABS,ioos:station:wmo:42043:1,2008-01-01T11:00:00Z,28.9818,-94.9186,4.0,13.28179581,32.11026936,16.86,'11111222,11111222,11111222' 
TABS,ioos:station:wmo:42043:1,2008-01-01T11:30:00Z,28.9818,-94.9186,4.0,13.34119185,34.98820961,17.28,'11111222,11111222,11111222' 
TABS,ioos:station:wmo:42043:1,2008-01-01T12:00:00Z,28.9818,-94.9186,4.0,12.43997588,23.24670717,15.56,'11111222,11111222,11111222' 
TABS,ioos:station:wmo:42043:1,2008-01-01T12:30:00Z,28.9818,-94.9186,4.0,12.22957481,24.59490358,15.55,'11111222,11111222,11111222' 
TABS,ioos:station:wmo:42043:1,2008-01-01T13:00:00Z,28.9818,-94.9186,4.0,12.85706421,28.01978312,16.67,'11111222,11111222,11111222' 
TABS,ioos:station:wmo:42043:1,2008-01-01T13:30:00Z,28.9818,-94.9186,4.0,12.94904244,28.40536669,16.73,'11111222,11111222,11111222' 
TABS,ioos:station:wmo:42043:1,2008-01-01T14:00:00Z,28.9818,-94.9186,4.0,12.26033034,27.65161414,15.46,'11111222,11111222,11111222' 
TABS,ioos:station:wmo:42043:1,2008-01-01T14:30:00Z,28.9818,-94.9186,4.0,12.0333952,24.49885489,15.11,'11111222,11111222,11111222' 
TABS,ioos:station:wmo:42043:1,2008-01-01T15:00:00Z,28.9818,-94.9186,4.0,11.23056544,30.26350061,14.38,'11111222,11111222,11111222' 
TABS,ioos:station:wmo:42043:1,2008-01-01T15:30:00Z,28.9818,-94.9186,4.0,11.13416813,27.89967058,14.11,'11111222,11111222,11111222' 
TABS,ioos:station:wmo:42043:1,2008-01-01T16:00:00Z,28.9818,-94.9186,4.0,11.22533296,21.97175492,13.66,'11111222,11111222,11111222' 
TABS,ioos:station:wmo:42043:1,2008-01-01T16:30:00Z,28.9818,-94.9186,4.0,11.11946492,19.98284933,13.76,'11111222,11111222,11111222' 
TABS,ioos:station:wmo:42043:1,2008-01-01T17:00:00Z,28.9818,-94.9186,4.0,10.83553414,22.92059824,13.73,'11111222,11111222,11111222' 
TABS,ioos:station:wmo:42043:1,2008-01-01T17:30:00Z,28.9818,-94.9186,4.0,10.5469332,22.69899891,13.25,'11111222,11111222,11111222' 
TABS,ioos:station:wmo:42043:1,2008-01-01T18:00:00Z,28.9818,-94.9186,4.0,9.786735922,19.76777284,12.88,'11111222,11111222,11111222' 
TABS,ioos:station:wmo:42043:1,2008-01-01T18:30:00Z,28.9818,-94.9186,4.0,9.702216242,17.94915056,12.32,'11111222,11111222,11111222' 
TABS,ioos:station:wmo:42043:1,2008-01-01T19:00:00Z,28.9818,-94.9186,4.0,10.52745458,14.97324166,13.51,'11111222,11111222,11111222' 
TABS,ioos:station:wmo:42043:1,2008-01-01T19:30:00Z,28.9818,-94.9186,4.0,10.00185983,17.09405516,12.57,'11111222,11111222,11111222' 
TABS,ioos:station:wmo:42043:1,2008-01-01T20:00:00Z,28.9818,-94.9186,4.0,9.468162441,16.88447315,11.93,'11111222,11111222,11111222' 
TABS,ioos:station:wmo:42043:1,2008-01-01T20:30:00Z,28.9818,-94.9186,4.0,8.920812743,18.29252273,11.66,'11111222,11111222,11111222' 
TABS,ioos:station:wmo:42043:1,2008-01-01T21:00:00Z,28.9818,-94.9186,4.0,9.217250132,14.83507185,11.95,'11111222,11111222,11111222' 
TABS,ioos:station:wmo:42043:1,2008-01-01T21:30:00Z,28.9818,-94.9186,4.0,9.131577082,8.120999468,11.59,'11111222,11111222,11111222' 
TABS,ioos:station:wmo:42043:1,2008-01-01T22:00:00Z,28.9818,-94.9186,4.0,10.54371851,1.521517096,13.54,'11111222,11111222,11111222' 
TABS,ioos:station:wmo:42043:1,2008-01-01T22:30:00Z,28.9818,-94.9186,4.0,10.0407669,12.83184768,14.18,'11111222,11111222,11111222' 
TABS,ioos:station:wmo:42043:1,2008-01-01T23:00:00Z,28.9818,-94.9186,4.0,9.627429563,6.261101204,12.37,'11111222,11111222,11111222' 
TABS,ioos:station:wmo:42043:1,2008-01-01T23:30:00Z,28.9818,-94.9186,4.0,10.54620785,9.551404664,14.02,'11111222,11111222,11111222' 
TABS,ioos:station:wmo:42043:1,2008-01-02T00:00:00Z,28.9818,-94.9186,4.0,11.62958727,9.502586962,14.51,'11111222,11111222,11111222' 
TABS,ioos:station:wmo:42043:1,2008-01-02T00:30:00Z,28.9818,-94.9186,4.0,12.02745193,9.571731238,16.04,'11111222,11111222,11111222' 
TABS,ioos:station:wmo:42043:1,2008-01-02T01:00:00Z,28.9818,-94.9186,4.0,10.26318177,8.516733014,13.44,'11111222,11111222,11111222' 
TABS,ioos:station:wmo:42043:1,2008-01-02T01:30:00Z,28.9818,-94.9186,4.0,10.4560987,356.8199669,13.37,'11111222,11111222,11111222' 
TABS,ioos:station:wmo:42043:1,2008-01-02T02:00:00Z,28.9818,-94.9186,4.0,8.329855941,353.7279754,10.97,'11111222,11111222,11111222' 
TABS,ioos:station:wmo:42043:1,2008-01-02T02:30:00Z,28.9818,-94.9186,4.0,8.788401447,344.287266,10.81,'11111222,11111222,11111222' 
TABS,ioos:station:wmo:42043:1,2008-01-02T03:00:00Z,28.9818,-94.9186,4.0,9.402988887,347.7816431,11.69,'11111222,11111222,11111222' 
TABS,ioos:station:wmo:42043:1,2008-01-02T03:30:00Z,28.9818,-94.9186,4.0,9.263541439,355.9141823,11.15,'11111222,11111222,11111222' 
TABS,ioos:station:wmo:42043:1,2008-01-02T04:00:00Z,28.9818,-94.9186,4.0,9.406853884,352.670811,12.76,'11111222,11111222,11111222' 
TABS,ioos:station:wmo:42043:1,2008-01-02T04:30:00Z,28.9818,-94.9186,4.0,8.454170568,351.9080439,10.85,'11111222,11111222,11111222' 
TABS,ioos:station:wmo:42043:1,2008-01-02T05:00:00Z,28.9818,-94.9186,4.0,8.678306286,347.4208837,10.65,'11111222,11111222,11111222' 
TABS,ioos:station:wmo:42043:1,2008-01-02T05:30:00Z,28.9818,-94.9186,4.0,9.785116249,349.4592917,11.94,'11111222,11111222,11111222' 
TABS,ioos:station:wmo:42043:1,2008-01-02T06:00:00Z,28.9818,-94.9186,4.0,9.984558077,349.9054044,13.15,'11111222,11111222,11111222' 
TABS,ioos:station:wmo:42043:1,2008-01-02T06:30:00Z,28.9818,-94.9186,4.0,9.936523537,357.9235153,12.53,'11111222,11111222,11111222' 
TABS,ioos:station:wmo:42043:1,2008-01-02T07:00:00Z,28.9818,-94.9186,4.0,9.73419745,350.8374639,13.06,'11111222,11111222,11111222' 
TABS,ioos:station:wmo:42043:1,2008-01-02T07:30:00Z,28.9818,-94.9186,4.0,8.961439616,355.198992,12.3,'11111222,11111222,11111222' 
TABS,ioos:station:wmo:42043:1,2008-01-02T08:00:00Z,28.9818,-94.9186,4.0,11.16114689,359.1784029,14.63,'11111222,11144222,11111222' 
TABS,ioos:station:wmo:42043:1,2008-01-02T08:30:00Z,28.9818,-94.9186,4.0,11.12217605,1.133188625,13.6,'11111222,11111222,11111222' 
TABS,ioos:station:wmo:42043:1,2008-01-02T09:00:00Z,28.9818,-94.9186,4.0,11.51316638,1.343576483,15.17,'11111222,11111222,11111222' 
TABS,ioos:station:wmo:42043:1,2008-01-02T09:30:00Z,28.9818,-94.9186,4.0,12.43133138,7.673603213,15.06,'11111222,11111222,11111222' 
TABS,ioos:station:wmo:42043:1,2008-01-02T10:00:00Z,28.9818,-94.9186,4.0,11.57415224,5.005970347,15.03,'11111222,11111222,11111222' 
TABS,ioos:station:wmo:42043:1,2008-01-02T10:30:00Z,28.9818,-94.9186,4.0,11.71708155,10.52329652,15.01,'11111222,11111222,11111222' 
TABS,ioos:station:wmo:42043:1,2008-01-02T11:00:00Z,28.9818,-94.9186,4.0,11.87633361,13.04138404,15.77,'11111222,11111222,11111222' 
TABS,ioos:station:wmo:42043:1,2008-01-02T11:30:00Z,28.9818,-94.9186,4.0,11.36120592,6.417934826,15.22,'11111222,11111222,11111222' 
TABS,ioos:station:wmo:42043:1,2008-01-02T12:00:00Z,28.9818,-94.9186,4.0,11.84678859,12.18234322,15.46,'11111222,11111222,11111222' 
TABS,ioos:station:wmo:42043:1,2008-01-02T12:30:00Z,28.9818,-94.9186,4.0,11.62794049,9.453989008,15.19,'11111222,11111222,11111222' 
TABS,ioos:station:wmo:42043:1,2008-01-02T13:00:00Z,28.9818,-94.9186,4.0,12.43189849,4.105098404,16.05,'11111222,11111222,11111222' 
TABS,ioos:station:wmo:42043:1,2008-01-02T13:30:00Z,28.9818,-94.9186,4.0,11.55000433,0.049396148,15.15,'11111222,11111222,11111222' 
TABS,ioos:station:wmo:42043:1,2008-01-02T14:00:00Z,28.9818,-94.9186,4.0,11.6175772,356.0512194,15.17,'11111222,11111222,11111222' 
TABS,ioos:station:wmo:42043:1,2008-01-02T14:30:00Z,28.9818,-94.9186,4.0,12.13049463,349.3105235,15.58,'11111222,11111222,11111222' 
TABS,ioos:station:wmo:42043:1,2008-01-02T15:00:00Z,28.9818,-94.9186,4.0,12.16751413,353.9612206,15.3,'11111222,11111222,11111222' 
TABS,ioos:station:wmo:42043:1,2008-01-02T15:30:00Z,28.9818,-94.9186,4.0,11.94176704,357.4560563,15.92,'11111222,11111222,11111222' 
TABS,ioos:station:wmo:42043:1,2008-01-02T16:00:00Z,28.9818,-94.9186,4.0,12.43067979,0.598998098,15.88,'11111222,11111222,11111222' 
TABS,ioos:station:wmo:42043:1,2008-01-02T16:30:00Z,28.9818,-94.9186,4.0,11.63987972,3.348899286,16.17,'11111222,11111222,11111222' 
TABS,ioos:station:wmo:42043:1,2008-01-02T17:00:00Z,28.9818,-94.9186,4.0,10.64511625,358.2233324,14.5,'11111222,11111222,11111222' 
TABS,ioos:station:wmo:42043:1,2008-01-02T17:30:00Z,28.9818,-94.9186,4.0,9.558373293,357.6013738,13.32,'11111222,11111222,11111222' 
TABS,ioos:station:wmo:42043:1,2008-01-02T18:00:00Z,28.9818,-94.9186,4.0,8.736503877,355.5357057,11.77,'11111222,11111222,11111222' 
TABS,ioos:station:wmo:42043:1,2008-01-02T18:30:00Z,28.9818,-94.9186,4.0,8.622372063,346.3826113,12.11,'11111222,11111222,11111222' 
TABS,ioos:station:wmo:42043:1,2008-01-02T19:00:00Z,28.9818,-94.9186,4.0,8.441658605,349.4885629,10.72,'11111222,11111222,11111222' 
TABS,ioos:station:wmo:42043:1,2008-01-02T19:30:00Z,28.9818,-94.9186,4.0,8.744123741,352.0457718,11.18,'11111222,11111222,11111222' 
TABS,ioos:station:wmo:42043:1,2008-01-02T20:00:00Z,28.9818,-94.9186,4.0,6.972926215,345.8041479,8.93,'11111222,11111222,11111222' 
TABS,ioos:station:wmo:42043:1,2008-01-02T20:30:00Z,28.9818,-94.9186,4.0,6.865777451,354.1480469,9.34,'11111222,11111222,11111222' 
TABS,ioos:station:wmo:42043:1,2008-01-02T21:00:00Z,28.9818,-94.9186,4.0,6.409555367,344.6192647,9.04,'11111222,11111222,11111222' 
TABS,ioos:station:wmo:42043:1,2008-01-02T21:30:00Z,28.9818,-94.9186,4.0,6.140659574,348.159214,9.84,'11111222,11111222,11111222' 
TABS,ioos:station:wmo:42043:1,2008-01-02T22:00:00Z,28.9818,-94.9186,4.0,6.585954752,357.563147,9.21,'11111222,11111222,11111222' 
TABS,ioos:station:wmo:42043:1,2008-01-02T22:30:00Z,28.9818,-94.9186,4.0,6.852919086,4.687044459,10.05,'11111222,11111222,11111222' 
TABS,ioos:station:wmo:42043:1,2008-01-02T23:00:00Z,28.9818,-94.9186,4.0,7.094060896,1.938535145,8.85,'11111222,11111222,11111222' 
TABS,ioos:station:wmo:42043:1,2008-01-02T23:30:00Z,28.9818,-94.9186,4.0,7.880158628,359.6362434,10.38,'11111222,11144222,11111222' 
TABS,ioos:station:wmo:42043:1,2008-01-03T00:00:00Z,28.9818,-94.9186,4.0,7.370108547,359.6888257,9.78,'11111222,11144222,11111222' 
TABS,ioos:station:wmo:42043:1,2008-01-03T00:30:00Z,28.9818,-94.9186,4.0,8.137481183,8.40868161,10.2,'11111222,11111222,11111222' 
TABS,ioos:station:wmo:42043:1,2008-01-03T01:00:00Z,28.9818,-94.9186,4.0,8.438489201,16.52340136,11.28,'11111222,11111222,11111222' 
TABS,ioos:station:wmo:42043:1,2008-01-03T01:30:00Z,28.9818,-94.9186,4.0,8.161868659,18.27930256,10.77,'11111222,11111222,11111222' 
TABS,ioos:station:wmo:42043:1,2008-01-03T02:00:00Z,28.9818,-94.9186,4.0,7.625516376,27.23683746,9.72,'11111222,11111222,11111222' 
TABS,ioos:station:wmo:42043:1,2008-01-03T02:30:00Z,28.9818,-94.9186,4.0,7.299328736,19.27867751,10.25,'11111222,11111222,11111222' 
TABS,ioos:station:wmo:42043:1,2008-01-03T03:00:00Z,28.9818,-94.9186,4.0,7.667398516,14.88784989,10.35,'11111222,11111222,11111222' 
TABS,ioos:station:wmo:42043:1,2008-01-03T03:30:00Z,28.9818,-94.9186,4.0,7.716871128,28.98942191,10.73,'11111222,11111222,11111222' 
TABS,ioos:station:wmo:42043:1,2008-01-03T04:00:00Z,28.9818,-94.9186,4.0,7.971380056,28.87979338,10.19,'11111222,11111222,11111222' 
TABS,ioos:station:wmo:42043:1,2008-01-03T04:30:00Z,28.9818,-94.9186,4.0,7.806465269,34.93160028,10.99,'11111222,11111222,11111222' 
TABS,ioos:station:wmo:42043:1,2008-01-03T05:00:00Z,28.9818,-94.9186,4.0,6.625896166,44.44936953,8.87,'11111222,11111222,11111222' 
TABS,ioos:station:wmo:42043:1,2008-01-03T05:30:00Z,28.9818,-94.9186,4.0,6.896209104,46.35102327,9.89,'11111222,11111222,11111222' 
TABS,ioos:station:wmo:42043:1,2008-01-03T06:00:00Z,28.9818,-94.9186,4.0,6.037814174,38.27418294,8.35,'11111222,11111222,11111222' 
TABS,ioos:station:wmo:42043:1,2008-01-03T06:30:00Z,28.9818,-94.9186,4.0,5.494005825,53.21319773,7.87,'11111222,11111222,11111222' 
TABS,ioos:station:wmo:42043:1,2008-01-03T07:00:00Z,28.9818,-94.9186,4.0,5.841104348,62.68882359,8.44,'11111222,11111222,11111222' 
TABS,ioos:station:wmo:42043:1,2008-01-03T07:30:00Z,28.9818,-94.9186,4.0,5.797413216,68.12481172,9.07,'11111222,11111222,11111222' 
TABS,ioos:station:wmo:42043:1,2008-01-03T08:00:00Z,28.9818,-94.9186,4.0,6.464711904,66.0911392,9.05,'11111222,11111222,11111222' 
TABS,ioos:station:wmo:42043:1,2008-01-03T08:30:00Z,28.9818,-94.9186,4.0,5.863139091,72.12092429,8.81,'11111222,11111222,11111222' 
TABS,ioos:station:wmo:42043:1,2008-01-03T09:00:00Z,28.9818,-94.9186,4.0,5.596302351,66.96236284,8.96,'11111222,11111222,11111222' 
TABS,ioos:station:wmo:42043:1,2008-01-03T09:30:00Z,28.9818,-94.9186,4.0,6.104506532,79.90462993,8.81,'11111222,11111222,11111222' 
TABS,ioos:station:wmo:42043:1,2008-01-03T10:00:00Z,28.9818,-94.9186,4.0,5.871669269,86.3867319,8.13,'11111222,11111222,11111222' 
TABS,ioos:station:wmo:42043:1,2008-01-03T10:30:00Z,28.9818,-94.9186,4.0,5.695059262,75.35334416,7.97,'11111222,11111222,11111222' 
TABS,ioos:station:wmo:42043:1,2008-01-03T11:00:00Z,28.9818,-94.9186,4.0,5.325082159,81.03256709,8.17,'11111222,11111222,11111222' 
TABS,ioos:station:wmo:42043:1,2008-01-03T11:30:00Z,28.9818,-94.9186,4.0,5.707933076,71.40596008,7.88,'11111222,11111222,11111222' 
TABS,ioos:station:wmo:42043:1,2008-01-03T12:00:00Z,28.9818,-94.9186,4.0,5.990300493,90.5743147,8.71,'11111222,11111222,11111222' 
TABS,ioos:station:wmo:42043:1,2008-01-03T12:30:00Z,28.9818,-94.9186,4.0,6.921885581,85.44217072,9.75,'11111222,11111222,11111222' 
TABS,ioos:station:wmo:42043:1,2008-01-03T13:00:00Z,28.9818,-94.9186,4.0,6.828067076,83.94666565,9.56,'11111222,11111222,11111222' 
TABS,ioos:station:wmo:42043:1,2008-01-03T13:30:00Z,28.9818,-94.9186,4.0,7.339455021,84.05596515,9.69,'11111222,11111222,11111222' 
TABS,ioos:station:wmo:42043:1,2008-01-03T14:00:00Z,28.9818,-94.9186,4.0,7.507343072,86.10428601,9.87,'11111222,11111222,11111222' 
TABS,ioos:station:wmo:42043:1,2008-01-03T14:30:00Z,28.9818,-94.9186,4.0,6.684309987,92.05806205,8.88,'11111222,11111222,11111222' 
TABS,ioos:station:wmo:42043:1,2008-01-03T15:00:00Z,28.9818,-94.9186,4.0,6.672608186,86.4768154,9.79,'11111222,11111222,11111222' 
TABS,ioos:station:wmo:42043:1,2008-01-03T15:30:00Z,28.9818,-94.9186,4.0,6.963914129,86.37706347,9.53,'11111222,11111222,11111222' 
TABS,ioos:station:wmo:42043:1,2008-01-03T16:00:00Z,28.9818,-94.9186,4.0,6.613811307,96.59890005,10.32,'11111222,11111222,11111222' 
TABS,ioos:station:wmo:42043:1,2008-01-03T16:30:00Z,28.9818,-94.9186,4.0,6.723161459,103.767931,10.3,'11111222,11111222,11111222' 
TABS,ioos:station:wmo:42043:1,2008-01-03T17:00:00Z,28.9818,-94.9186,4.0,6.472719676,95.76384832,9.25,'11111222,11111222,11111222' 
TABS,ioos:station:wmo:42043:1,2008-01-03T17:30:00Z,28.9818,-94.9186,4.0,6.822558171,99.44891482,9.62,'11111222,11111222,11111222' 
TABS,ioos:station:wmo:42043:1,2008-01-03T18:00:00Z,28.9818,-94.9186,4.0,6.633309883,93.63062659,9.51,'11111222,11111222,11111222' 
TABS,ioos:station:wmo:42043:1,2008-01-03T18:30:00Z,28.9818,-94.9186,4.0,6.012229204,102.487853,8.59,'11111222,11111222,11111222' 
TABS,ioos:station:wmo:42043:1,2008-01-03T19:00:00Z,28.9818,-94.9186,4.0,5.347335785,95.79629375,7.77,'11111222,11111222,11111222' 
TABS,ioos:station:wmo:42043:1,2008-01-03T19:30:00Z,28.9818,-94.9186,4.0,4.861645812,112.2394764,7.1,'11111222,11111222,11111222' 
TABS,ioos:station:wmo:42043:1,2008-01-03T20:00:00Z,28.9818,-94.9186,4.0,5.215294814,109.3733765,7.14,'11111222,11111222,11111222' 
TABS,ioos:station:wmo:42043:1,2008-01-03T20:30:00Z,28.9818,-94.9186,4.0,5.402675263,110.8170767,7.49,'11111222,11111222,11111222' 
TABS,ioos:station:wmo:42043:1,2008-01-03T21:00:00Z,28.9818,-94.9186,4.0,4.730877297,105.4467012,6.82,'11111222,11111222,11111222' 
TABS,ioos:station:wmo:42043:1,2008-01-03T21:30:00Z,28.9818,-94.9186,4.0,4.903162245,106.9570574,6.83,'11111222,11111222,11111222' 
TABS,ioos:station:wmo:42043:1,2008-01-03T22:00:00Z,28.9818,-94.9186,4.0,4.782070681,109.4204721,7.49,'11111222,11111222,11111222' 
TABS,ioos:station:wmo:42043:1,2008-01-03T22:30:00Z,28.9818,-94.9186,4.0,4.710944704,114.987866,6.69,'11111222,11111222,11111222' 
TABS,ioos:station:wmo:42043:1,2008-01-03T23:00:00Z,28.9818,-94.9186,4.0,5.409482415,118.365673,8.24,'11111222,11111222,11111222' 
TABS,ioos:station:wmo:42043:1,2008-01-03T23:30:00Z,28.9818,-94.9186,4.0,5.850957187,125.0485157,7.8,'11111222,11111222,11111222' 
TABS,ioos:station:wmo:42043:1,2008-01-04T00:00:00Z,28.9818,-94.9186,4.0,5.416659487,120.0207534,7.67,'11111222,11111222,11111222' 
TABS,ioos:station:wmo:42043:1,2008-01-04T00:30:00Z,28.9818,-94.9186,4.0,5.956911952,116.7374685,7.95,'11111222,11111222,11111222' 
TABS,ioos:station:wmo:42043:1,2008-01-04T01:00:00Z,28.9818,-94.9186,4.0,6.322096171,122.5340947,8.6,'11111222,11111222,11111222' 
TABS,ioos:station:wmo:42043:1,2008-01-04T01:30:00Z,28.9818,-94.9186,4.0,5.966992542,122.545182,8.22,'11111222,11111222,11111222' 
TABS,ioos:station:wmo:42043:1,2008-01-04T02:00:00Z,28.9818,-94.9186,4.0,6.19562749,128.1835286,8.74,'11111222,11111222,11111222' 
TABS,ioos:station:wmo:42043:1,2008-01-04T02:30:00Z,28.9818,-94.9186,4.0,5.946435907,126.1764744,7.69,'11111222,11111222,11111222' 
TABS,ioos:station:wmo:42043:1,2008-01-04T03:00:00Z,28.9818,-94.9186,4.0,6.169448922,131.6492878,8.08,'11111222,11111222,11111222' 
TABS,ioos:station:wmo:42043:1,2008-01-04T03:30:00Z,28.9818,-94.9186,4.0,6.461114455,125.8060393,8.31,'11111222,11111222,11111222' 
TABS,ioos:station:wmo:42043:1,2008-01-04T04:00:00Z,28.9818,-94.9186,4.0,6.551648647,124.4908471,8.81,'11111222,11111222,11111222' 
TABS,ioos:station:wmo:42043:1,2008-01-04T04:30:00Z,28.9818,-94.9186,4.0,6.190702706,124.2037978,8.18,'11111222,11111222,11111222' 
TABS,ioos:station:wmo:42043:1,2008-01-04T05:00:00Z,28.9818,-94.9186,4.0,6.796035609,126.6847556,8.51,'11111222,11111222,11111222' 
TABS,ioos:station:wmo:42043:1,2008-01-04T05:30:00Z,28.9818,-94.9186,4.0,6.710417275,129.7403058,8.63,'11111222,11111222,11111222' 
TABS,ioos:station:wmo:42043:1,2008-01-04T06:00:00Z,28.9818,-94.9186,4.0,6.556111652,122.1632109,8.5,'11111222,11111222,11111222' 
TABS,ioos:station:wmo:42043:1,2008-01-04T06:30:00Z,28.9818,-94.9186,4.0,7.004741251,130.8322925,8.99,'11111222,11111222,11111222' 
TABS,ioos:station:wmo:42043:1,2008-01-04T07:00:00Z,28.9818,-94.9186,4.0,7.84005102,125.0282813,9.98,'11111222,11111222,11111222' 
TABS,ioos:station:wmo:42043:1,2008-01-04T07:30:00Z,28.9818,-94.9186,4.0,5.957130182,114.2851202,8.05,'11111222,11111222,11111222' 
TABS,ioos:station:wmo:42043:1,2008-01-04T08:00:00Z,28.9818,-94.9186,4.0,7.111575072,115.6646093,8.79,'11111222,11111222,11111222' 
TABS,ioos:station:wmo:42043:1,2008-01-04T08:30:00Z,28.9818,-94.9186,4.0,7.535761408,108.651717,9.76,'11111222,11111222,11111222' 
TABS,ioos:station:wmo:42043:1,2008-01-04T09:00:00Z,28.9818,-94.9186,4.0,7.683749085,104.4706812,9.48,'11111222,11111222,11111222' 
TABS,ioos:station:wmo:42043:1,2008-01-04T09:30:00Z,28.9818,-94.9186,4.0,7.236711961,101.1550546,8.89,'11111222,11111222,11111222' 
TABS,ioos:station:wmo:42043:1,2008-01-04T10:00:00Z,28.9818,-94.9186,4.0,7.049858155,98.07303623,8.79,'11111222,11111222,11111222' 
TABS,ioos:station:wmo:42043:1,2008-01-04T10:30:00Z,28.9818,-94.9186,4.0,6.63453088,85.0709972,8.81,'11111222,11111222,11111222' 
TABS,ioos:station:wmo:42043:1,2008-01-04T11:00:00Z,28.9818,-94.9186,4.0,4.582542962,140.5789389,5.64,'11111222,11111222,11111222' 
TABS,ioos:station:wmo:42043:1,2008-01-04T11:30:00Z,28.9818,-94.9186,4.0,4.762877282,138.9162304,5.98,'11111222,11111222,11111222' 
TABS,ioos:station:wmo:42043:1,2008-01-04T12:00:00Z,28.9818,-94.9186,4.0,7.845055768,115.6835056,9.92,'11111222,11111222,11111222' 
TABS,ioos:station:wmo:42043:1,2008-01-04T12:30:00Z,28.9818,-94.9186,4.0,8.217700408,112.5397842,10.23,'11111222,11111222,11111222' 
TABS,ioos:station:wmo:42043:1,2008-01-04T13:00:00Z,28.9818,-94.9186,4.0,8.095856965,104.156784,10.65,'11111222,11111222,11111222' 
TABS,ioos:station:wmo:42043:1,2008-01-04T13:30:00Z,28.9818,-94.9186,4.0,8.657857703,102.8809221,10.79,'11111222,11111222,11111222' 
TABS,ioos:station:wmo:42043:1,2008-01-04T14:00:00Z,28.9818,-94.9186,4.0,8.496316849,100.6490492,11.05,'11111222,11111222,11111222' 
TABS,ioos:station:wmo:42043:1,2008-01-04T14:30:00Z,28.9818,-94.9186,4.0,8.751051365,104.5606625,11.55,'11111222,11111222,11111222' 
TABS,ioos:station:wmo:42043:1,2008-01-04T15:00:00Z,28.9818,-94.9186,4.0,9.066780024,109.0548229,11.28,'11111222,11111222,11111222' 
TABS,ioos:station:wmo:42043:1,2008-01-04T15:30:00Z,28.9818,-94.9186,4.0,8.195443856,107.1750699,11.36,'11111222,11111222,11111222' 
TABS,ioos:station:wmo:42043:1,2008-01-04T16:00:00Z,28.9818,-94.9186,4.0,7.753870001,104.1083183,9.79,'11111222,11111222,11111222' 
TABS,ioos:station:wmo:42043:1,2008-01-04T16:30:00Z,28.9818,-94.9186,4.0,7.223745566,99.24105029,8.78,'11111222,11111222,11111222' 
TABS,ioos:station:wmo:42043:1,2008-01-04T17:00:00Z,28.9818,-94.9186,4.0,5.481505268,101.5768164,7.09,'11111222,11111222,11111222' 
TABS,ioos:station:wmo:42043:1,2008-01-04T17:30:00Z,28.9818,-94.9186,4.0,5.242060664,124.1148141,6.15,'11111222,11111222,11111222' 
TABS,ioos:station:wmo:42043:1,2008-01-04T18:00:00Z,28.9818,-94.9186,4.0,5.456161654,112.5232998,7.42,'11111222,11111222,11111222' 